www.pogodaiklimat.ru

Погода и климат >> Архив погоды >> Пакистан >> Окара


ПОГОДА в Окаре

  • Прогноз погоды в Окаре
  • Монитор погоды в Окаре

АРХИВ ПОГОДЫ в Окаре

Время (UTC), дата Ветер
(напр.,м/с)
 
Видим.   Явления Облачность Т
(С)
Тd
(С)
f
(%)
Тe
(С)
Тes
(С)
Комфортность P
(гПа)
Po
(гПа)
Тmin
(С)
Tmax
(С)
R
(мм)
R24
(мм)
S
(см)
06 14.05 СВ 1 4000 м 4/0
[Ac trans]
+36.0 +15.6 30 +38 +56 опасность
солнечного
удара
1006.8 987.0
12 14.05 СВ 1 4000 м 4/0
[Ac trans]
+36.0 +18.7 36 +40 +44 очень
душно
1003.4 983.6 +37.0
15 14.05 штиль 0 4000 м ясно +32.5 +19.8 47 +38 +38 очень
душно
1004.1 984.1
18 14.05 штиль 0 4000 м ясно +29.5 +19.7 56 +36 +36 очень
душно
1005.2 985.2
21 14.05 штиль 0 4000 м ясно +28.0 +18.8 57 +33 +33 очень
душно
1005.8 985.6
00 15.05 СВ 4 4000 м гроза, ливневой дождь 9/6 900 м
[Cb cap Ac As]
+23.5 +18.8 75 +28 +28 душно 1009.4 988.8 3
03 15.05 СВ 1 4000 м дым 9/5 1200 м
[Sc diur, vesp Ac As]
+23.5 +18.8 75 +28 +30 душно 1007.1 986.3 +21.0
06 15.05 штиль 0 4000 м дым 8/4 1200 м
[Sc diur, vesp Ac As]
+28.0 +20.5 64 +35 +43 очень
душно
1008.3 987.9
09 15.05 штиль 0 4000 м мгла 8/4 1200 м
[Sc diur, vesp Ac As]
+32.0 +18.2 44 +37 +44 очень
душно
1008.3 988.1
12 15.05 штиль 0 4000 м 8/3 1200 м
[Sc diur, vesp Ac As]
+31.0 +18.8 48 +36 +38 очень
душно
1005.7 985.5 +32.5
15 15.05 штиль 0 4000 м ясно +28.0 +19.6 60 +34 +34 очень
душно
1006.1 985.7
18 15.05 штиль 0 4000 м дым ясно +25.5 +19.3 69 +31 +31 очень
душно
1008.4 987.8
00 16.05 штиль 0 4000 м дым ясно +23.5 +18.0 71 +28 +28 душно 1007.6 986.8
03 16.05 штиль 0 4000 м дым 4/0
[Ac trans]
+25.0 +17.9 65 +29 +37 душно 1009.6 989.0 +22.0
06 16.05 штиль 0 4000 м дым ясно +29.0 +18.2 52 +34 +61 опасность
солнечного
удара
1010.2 989.8
09 16.05 штиль 0 4000 м мгла ясно +32.5 +18.9 45 +38 +61 опасность
солнечного
удара
1008.7 988.7
12 16.05 штиль 0 4000 м мгла ясно +33.5 +19.2 43 +39 +44 очень
душно
1006.2 986.2 +34.5
15 16.05 штиль 0 4000 м дым ясно +30.0 +18.5 50 +35 +35 очень
душно
1007.0 986.8
18 16.05 штиль 0 4000 м дым ясно +28.0 +18.8 57 +33 +33 очень
душно
1008.5 988.1
21 16.05 штиль 0 4000 м дым ясно +26.5 +17.9 59 +31 +31 душно 1008.6 988.2
00 17.05 штиль 0 4000 м дым 8/8 1000 м
[]
+22.5 +17.7 74 +28 +28 душно 1007.8 987.0
03 17.05 СВ 1 4000 м дым 8/5 1200 м
[Sc diur, vesp Ac As]
+24.0 +18.5 71 +28 +31 душно 1008.0 987.4 +21.5
06 17.05 СВ 1 4000 м гроза, ливневой дождь 9/5 900 м
[Cb cap Ac As]
+26.0 +19.9 69 +32 +37 очень
душно
1009.9 989.3 2
09 17.05 СВ 1 4000 м дым 8/5 1200 м
[Sc diur, vesp Ac As]
+26.0 +19.9 69 +32 +38 очень
душно
1008.6 988.0
12 17.05 штиль 0 4000 м дым 8/5 1200 м
[Sc As op]
+26.0 +19.9 69 +32 +33 очень
душно
1006.0 985.4 +26.5
15 17.05 С 2 4000 м дым 5/0
[Ac trans]
+25.0 +18.8 68 +30 +30 душно 1006.6 986.0
18 17.05 штиль 0 4000 м дым ясно +23.5 +19.6 79 +29 +29 душно 1008.2 987.4
21 17.05 штиль 0 4000 м дым ясно +22.0 +18.9 83 +27 +27 душно 1007.1 986.3
00 18.05 штиль 0 4000 м дым ясно +20.0 +17.6 86 +23 +23 комфорт 1007.3 986.3
03 18.05 С 2 4000 м дым ясно +24.0 +17.6 67 +28 +35 душно 1008.1 987.5 +19.5
06 18.05 штиль 0 4000 м дым ясно +29.0 +18.2 52 +34 +61 опасность
солнечного
удара
1009.0 988.6
09 18.05 С 2 4000 м ясно +33.0 +17.6 40 +37 +54 опасность
солнечного
удара
1007.0 987.0
12 18.05 С 1 4000 м 4/0
[Ci fib]
+33.0 +18.5 42 +38 +42 очень
душно
1005.4 985.4 +34.5
15 18.05 штиль 0 4000 м ясно +30.0 +19.4 53 +36 +36 очень
душно
1005.6 985.4
18 18.05 штиль 0 4000 м дым ясно +27.0 +19.3 63 +33 +33 очень
душно
1006.8 986.4
21 18.05 штиль 0 4000 м дым ясно +25.0 +18.8 68 +30 +30 душно 1006.1 985.6
03 19.05 штиль 0 4000 м дым ясно +28.0 +18.8 57 +33 +43 очень
душно
1006.8 986.4 +22.5
06 19.05 ЮЗ 2 4000 м ясно +34.0 +16.9 36 +37 +57 опасность
солнечного
удара
1007.2 987.2
09 19.05 ЮЗ 1 4000 м ясно +37.0 +17.1 31 +40 +60 опасность
солнечного
удара
1005.5 985.8
12 19.05 штиль 0 4000 м ясно +37.0 +17.1 31 +40 +45 очень
душно
1003.9 984.1 +38.5
15 19.05 штиль 0 4000 м 6/0
[Ac trans]
+34.0 +18.9 41 +39 +39 очень
душно
1005.3 985.4
18 19.05 С 3 4000 м дым 6/0
[Ac trans]
+30.0 +19.4 53 +36 +36 очень
душно
1007.9 987.7
21 19.05 С 3 4000 м дым 5/0
[Ac trans]
+29.0 +17.0 48 +33 +33 очень
душно
1007.8 987.5
00 20.05 штиль 0 4000 м дым 5/0
[Ac trans]
+23.5 +18.0 71 +28 +28 душно 1007.3 986.5
03 20.05 штиль 0 4000 м дым ясно +26.0 +16.4 55 +29 +39 душно 1008.6 988.0 +23.0
06 20.05 С 1 4000 м ясно +32.0 +18.2 44 +37 +60 опасность
солнечного
удара
1009.3 989.1
09 20.05 С 1 4000 м ясно +36.0 +17.7 34 +39 +60 опасность
солнечного
удара
1008.3 988.4
12 20.05 штиль 0 4000 м ясно +37.0 +17.1 31 +40 +45 очень
душно
1007.1 987.3 +37.0
00 21.05 штиль 0 4000 м дым ясно +25.0 +18.8 68 +30 +30 душно 1007.1 986.5

 

Местоположение метеостанции Окара (Пакистан): широта 30.80 долгота 73.43 высота над уровнем моря 180 м.

В архиве по умолчанию представлена погода в Окаре за последнюю неделю. Архивные данные за месяц целиком и за предыдущие месяцы, начиная с января 2011 года, Вы можете получить, выбрав интересующий диапазон дат из раскрывающегося списка и нажав кнопку "Ввод!".


*Определитесь, кто Вы:
робот инопланетянин человек

Внимание! Время в таблицах - всемирное. Для получения местного времени необходимо прибавить поправку, которая равна 5 ч.

Смотрите также архив погоды в соседних городах и на ближайших метеорологических станциях:

Погода в Сахивале (Пакистан) (42 км)
Погода в Фейсалабаде (Пакистан) (77 км)
Погода в Тоба Тек Сингх (Пакистан) (94 км)
Погода в Бахавалнагаре (Пакистан) (96 км)
Погода в Касуре (Пакистан) (105 км)
Погода в Шри-Ганганагаре (Раджастхан, Индия) (106 км)
Погода на Авиабазе Raifiqui (Пакистан) (118 км)
Погода в Джанге (Пакистан) (118 км)
Погода в Лахоре (Пакистан) (120 км)
Погода в Лахор аэропорту (Пакистан) (122 км)

Пояснения к столбцам:

Ветер - указаны скорость ветра в м/с - средняя за 10 мин, порывы в срок и между сроками (в фигурных скобках) и направление, откуда дует ветер: С - северный, СВ - северо-восточный, В - восточный, ЮВ - юго-восточный, Ю - южный, ЮЗ - юго-западный, З - западный, СЗ - северо-западный.
Видимость - горизонтальная дальность видимости в метрах или километрах. При видимости от 1 до 10 км при отсутствии осадков обычно наблюдается дымка, при ухудшении видимости до 1 км и менее - туман. В сухую погоду видимость может ухудшаться дымом, пылью или мглою.
Явления - указаны атмосферные явления, наблюдавшиеся в срок или в последний час перед сроком; фигурными скобками обозначены явления, наблюдавшиеся между сроками (за 1-3 часа до срока); квадратными скобками обозначены град или гололедные отложения с указанием их диаметра в мм.
Облачность - указаны через наклонную черту общая и нижняя облачность в баллах и высота нижней границы облаков в метрах; квадратными скобками обозначены формы облаков: Ci - перистые, Cs - перисто-слоистые, Cc - перисто-кучевые, Ac - высококучевые, As - высокослоистые, Sc - слоисто-кучевые, Ns - слоисто-дождевые, Cu - кучевые, Cb - кучево-дождевые. Подробнее классификацию облаков см. в Атласе облаков (PDF).
T - Температура воздуха - температура, измеренная на высоте 2 м над землей.
Td - Температура точки росы - температура, при понижении до которой содержащийся в воздухе водяной пар достигнет насыщения.
f - Относительная влажность воздуха - влажноcть воздуха, измеренная на высоте 2 м над землей.
Te - Эффективная температура - температура, которую ощущает одетый по сезону человек в тени. Характеристика душности погоды. При расчете учитывается влияние влажности воздуха и скорости ветра на теплоощущения человека.
Tes - Эффективная температура на солнце - температура, которую ощущает человек, с поправкой на солнечный нагрев. Характеристика знойности погоды. Зависит от высоты солнца над горизонтом, облачности и скорости ветра. Ночью, в пасмурную погоду, а также при ветре 12 м/с и более поправка равна нулю.
P - Атмосферное давление - приведенное к уровню моря атмосферное давление.
Po - Атмосферное давление - измеренное на уровне метеостанции атмосферное давление.
Tmin - Минимальная температура - минимум температуры воздуха на высоте 2 м над землей.
Tmax - Максимальная температура - максимум температуры воздуха на высоте 2 м над землей.
R - Количество осадков - Количество выпавших осадков за период времени, мм. При наведении курсора мыши на число - период времени, за который выпало указанное количество осадков.
R24 - Количество осадков - Количество выпавших осадков за 24 часа, мм.
S - Снежный покров - Высота снежного покрова, см. При наведении курсора мыши на число - состояние снежного покрова и степень покрытия местности в баллах.